Wheeler Observed Data For Previous 48 Hours

Caption
Day and Hour Reservoir Elevation (behind dam)* Tailwater Elevation (below dam)* Average Hourly Discharge*
10/11/2019 1 AM CDT 554.03 506.89 9,838
10/11/2019 2 AM CDT 554.03 506.78 9,399
10/11/2019 3 AM CDT 554.01 506.80 9,395
10/11/2019 4 AM CDT 554.00 506.83 9,351
10/11/2019 5 AM CDT 554.00 506.80 9,319
10/11/2019 6 AM CDT 553.98 506.79 9,354
10/11/2019 7 AM CDT 553.97 506.78 9,322
10/11/2019 8 AM CDT 554.00 506.74 9,384
10/11/2019 9 AM CDT 554.00 506.68 9,454
10/11/2019 10 AM CDT 553.96 506.77 10,063
10/11/2019 11 AM CDT 553.93 506.73 19,047
10/11/2019 12 PM CDT 553.94 507.01 28,343
10/11/2019 1 PM CDT 553.93 507.10 28,602
10/11/2019 2 PM CDT 553.91 507.01 28,617
10/11/2019 3 PM CDT 553.87 507.10 28,607
10/11/2019 4 PM CDT 553.83 507.15 28,525
10/11/2019 5 PM CDT 553.84 507.14 28,494
10/11/2019 6 PM CDT 553.83 507.13 28,506
10/11/2019 7 PM CDT 553.79 507.14 28,540
10/11/2019 8 PM CDT 553.80 507.17 28,604
10/11/2019 9 PM CDT 553.76 507.22 28,494
10/11/2019 10 PM CDT 553.70 507.31 28,418
10/11/2019 11 PM CDT 553.62 507.12 19,384
10/12/2019 12 AM CDT 553.71 507.15 9,834
10/12/2019 1 AM CDT 553.72 507.18 9,434
10/12/2019 2 AM CDT 553.71 507.05 9,431
10/12/2019 3 AM CDT 553.74 507.04 9,436
10/12/2019 4 AM CDT 553.75 507.00 9,466
10/12/2019 5 AM CDT 553.76 506.98 9,428
10/12/2019 6 AM CDT 553.82 506.98 9,451
10/12/2019 7 AM CDT 553.80 506.98 9,516
10/12/2019 8 AM CDT 553.76 507.00 18,609
10/12/2019 9 AM CDT 553.73 507.09 27,726
10/12/2019 10 AM CDT 553.75 507.18 28,226
10/12/2019 11 AM CDT 553.72 507.12 28,229
10/12/2019 12 PM CDT 553.71 507.22 28,246
10/12/2019 1 PM CDT 553.75 507.23 28,255
10/12/2019 2 PM CDT 553.75 507.18 28,179
10/12/2019 3 PM CDT 553.77 507.21 19,254
10/12/2019 4 PM CDT 553.78 507.11 18,773
10/12/2019 5 PM CDT 553.74 507.10 18,955
10/12/2019 6 PM CDT 553.73 507.18 27,837
10/12/2019 7 PM CDT 553.73 507.24 28,395
10/12/2019 8 PM CDT 553.72 507.30 28,388
10/12/2019 9 PM CDT 553.73 507.20 19,375
10/12/2019 10 PM CDT 553.75 507.25 9,915
10/12/2019 11 PM CDT 553.76 507.20 9,499
10/13/2019 12 AM CDT 553.76 507.14 9,477
10/13/2019 1 AM CDT 553.76 507.18 9,466
10/13/2019 2 AM CDT 553.77 507.12 9,435
10/13/2019 3 AM CDT 553.76 507.11 9,439
10/13/2019 4 AM CDT 553.78 507.12 9,455
10/13/2019 5 AM CDT 553.78 507.07 9,482
10/13/2019 6 AM CDT 553.78 507.08 9,462
10/13/2019 7 AM CDT 553.77 507.12 9,526
10/13/2019 8 AM CDT 553.73 507.10 18,673
10/13/2019 9 AM CDT 553.69 507.19 27,679
10/13/2019 10 AM CDT 553.72 507.30 28,345
10/13/2019 11 AM CDT 553.69 507.28 28,330
10/13/2019 12 PM CDT 553.65 507.31 28,345
10/13/2019 1 PM CDT 553.66 507.29 19,464
10/13/2019 2 PM CDT 553.65 507.23 19,092
10/13/2019 3 PM CDT 553.65 507.24 19,083
10/13/2019 4 PM CDT 553.65 507.34 19,087
10/13/2019 5 PM CDT 553.62 507.27 19,158

Elevations are in feet above sea level. Discharges are in cubic feet per second and are reported at the end of the hour.